Location: ???? ???
(30.5005°N, 60.5936°E)
Time: 13:00:48
(UTC+00:00)

H-2A R/B - Pass Details

Date: 07 June 2020
Orbit: 577 x 655 km, 98.5° (Epoch: 06 July)

Event Time Altitude Azimuth Distance (km) Brightness Sun altitude
Exits shadow 00:00:10 - 197° (SSW) 2,126 4.3 -10.9°
Reaches altitude 10° 00:00:31 10° 199° (SSW) 2,000 4.2 -10.9°
Maximum altitude 00:04:23 31° 262° (W) 1,124 2.9 -10.2°
Drops below altitude 10° 00:08:20 10° 324° (NW) 2,047 4.7 -9.5°
Sets 00:10:47 0° 335° (NNW) 2,969 5.7 -9.0°
